DW8016 Weather Reports


Display with metric or nautical units.
time (UTC)temp
F
wind
direction
speed
MPH
gust
MPH
rain 1hr
in
rain 24hr
in
rain mn
in
humidity
%
barometer
mb
20260502162510 58 288 0.0 3.0 0.00 0.00 0.00 45 1013.2
20260502161458 58 296 1.0 5.0 0.00 0.00 0.00 44 1013.1
20260502160449 58 329 0.0 5.0 0.00 0.00 0.00 46 1013.2
20260502152330 56 59 0.0 5.0 0.00 0.00 0.00 51 1013.4
20260502151322 55 15 1.0 5.0 0.00 0.00 0.00 49 1013.6
20260502150334 55 44 1.0 6.0 0.00 0.00 0.00 51 1013.6
20260502121747 50 22 0.0 6.0 0.00 0.00 0.00 63 1013.4
20260502120803 50 334 1.0 6.0 0.00 0.00 0.00 64 1013.5
20260502115803 49 331 1.0 6.0 0.00 0.00 0.00 66 1013.4
20260502114745 49 355 2.0 6.0 0.00 0.00 0.00 66 1013.1
20260502113807 49 342 2.0 5.0 0.00 0.00 0.00 66 1013.2
20260502112750 49 337 2.0 6.0 0.00 0.00 0.00 65 1013.3
20260502111737 49 346 1.0 6.0 0.00 0.00 0.00 65 1013.3
20260502105554 50 329 1.0 6.0 0.00 0.00 0.00 65 1013.0
20260502104528 50 327 1.0 6.0 0.00 0.00 0.00 65 1012.8
20260502102423 50 320 1.0 4.0 0.00 0.00 0.00 64 1012.6
20260502101440 50 295 0.0 3.0 0.00 0.00 0.00 64 1012.6
20260502100425 50 300 1.0 5.0 0.00 0.00 0.00 63 1012.5
20260502091251 52 344 0.0 4.0 0.00 0.00 0.00 64 1011.8
20260502090301 52 348 0.0 3.0 0.00 0.00 0.00 64 1011.6
20260502071054 54 287 0.0 0.0 0.00 0.00 0.00 72 1011.6
20260502070047 54 287 0.0 1.0 0.00 0.00 0.00 72 1011.5
20260502065046 54 287 0.0 1.0 0.00 0.00 0.00 72 1011.3
20260502064026 55 287 0.0 1.0 0.00 0.00 0.00 71 1011.3
20260502061916 55 287 0.0 3.0 0.00 0.00 0.00 70 1011.5
20260502060852 56 261 0.0 4.0 0.00 0.00 0.00 70 1011.8
20260502055822 56 296 0.0 3.0 0.00 0.00 0.00 72 1011.9
20260502054816 56 290 0.0 1.0 0.00 0.00 0.00 72 1012.0
20260502053745 56 290 0.0 1.0 0.00 0.00 0.00 72 1011.9
20260502052713 56 290 0.0 0.0 0.00 0.00 0.00 74 1011.9
20260502051728 56 290 0.0 0.0 0.00 0.00 0.00 74 1012.0
20260502050706 56 290 0.0 0.0 0.00 0.00 0.00 75 1011.9
20260502045708 56 290 0.0 0.0 0.00 0.00 0.00 74 1011.9
20260502044649 56 290 0.0 0.0 0.00 0.00 0.00 75 1012.0
20260502042609 56 290 0.0 3.0 0.00 0.00 0.00 74 1012.0
20260502041538 56 294 0.0 0.0 0.00 0.00 0.00 75 1011.8
20260502040600 57 284 0.0 1.0 0.00 0.00 0.00 75 1011.6
20260502035600 57 284 0.0 0.0 0.00 0.00 0.00 71 1011.4
20260502034526 58 284 0.0 0.0 0.00 0.00 0.00 69 1011.4
20260502033515 59 284 0.0 8.0 0.00 0.00 0.00 67 1011.5
20260502032526 59 284 1.0 6.0 0.00 0.00 0.00 61 1011.1
20260502031540 59 201 0.0 3.0 0.00 0.00 0.00 61 1010.8
20260502030512 59 174 2.0 8.0 0.00 0.00 0.00 60 1010.6
20260502025445 59 158 2.0 7.0 0.00 0.00 0.00 59 1010.4
20260502024447 59 156 1.0 6.0 0.00 0.00 0.00 59 1010.4
20260502023414 59 123 1.0 6.0 0.00 0.00 0.00 57 1010.4
20260502022415 60 155 1.0 6.0 0.00 0.00 0.00 55 1010.4
20260502021427 60 181 1.0 5.0 0.00 0.00 0.00 53 1010.5
20260502020414 61 188 0.0 5.0 0.00 0.00 0.00 52 1010.6
20260502015358 61 148 0.0 4.0 0.00 0.00 0.00 51 1010.4
20260502014403 61 135 1.0 1.0 0.00 0.00 0.00 50 1010.5
20260502004841 63 193 2.0 7.0 0.00 0.00 0.00 43 1009.4
20260502003832 63 181 3.0 7.0 0.00 0.00 0.00 43 1009.2
20260502002838 63 162 2.0 11.0 0.00 0.00 0.00 43 1009.2
20260502001808 63 132 2.0 11.0 0.00 0.00 0.00 42 1009.2
20260502000826 63 157 1.0 6.0 0.00 0.00 0.00 42 1009.1
20260501235842 64 167 1.0 8.0 0.00 0.00 0.00 41 1009.2
20260501234845 64 158 3.0 8.0 0.00 0.00 0.00 41 1009.0
20260501233905 64 196 2.0 7.0 0.00 0.00 0.00 40 1008.9
20260501231738 65 159 1.0 7.0 0.00 0.00 0.00 39 1008.8
20260501230708 65 184 2.0 10.0 0.00 0.00 0.00 39 1008.9
20260501223400 66 203 4.0 17.0 0.00 0.00 0.00 37 1009.0
20260501222423 66 114 4.0 17.0 0.00 0.00 0.00 37 1009.2
20260501221423 66 132 4.0 12.0 0.00 0.00 0.00 37 1009.2
20260501220405 66 141 4.0 12.0 0.00 0.00 0.00 37 1009.3
20260501215357 67 159 4.0 11.0 0.00 0.00 0.00 36 1009.1
20260501214407 67 196 2.0 11.0 0.00 0.00 0.00 36 1009.3
20260501213408 68 159 2.0 14.0 0.00 0.00 0.00 36 1009.2
20260501212402 68 162 5.0 14.0 0.00 0.00 0.00 34 1009.4
20260501211423 68 137 5.0 12.0 0.00 0.00 0.00 33 1009.3
20260501210432 68 167 3.0 15.0 0.00 0.00 0.00 33 1009.4
20260501205412 68 138 5.0 15.0 0.00 0.00 0.00 35 1009.3
20260501204350 67 111 5.0 15.0 0.00 0.00 0.00 35 1009.5
20260501203341 67 236 6.0 15.0 0.00 0.00 0.00 34 1009.6
20260501202356 68 187 3.0 14.0 0.00 0.00 0.00 33 1009.8
20260501200222 67 183 5.0 12.0 0.00 0.00 0.00 32 1010.1
20260501195234 67 171 4.0 11.0 0.00 0.00 0.00 32 1010.5
20260501194215 67 274 3.0 10.0 0.00 0.00 0.00 32 1010.6
20260501192042 67 187 5.0 17.0 0.00 0.00 0.00 31 1011.0
20260501191015 66 98 4.0 14.0 0.00 0.00 0.00 34 1011.1
20260501184812 68 264 2.0 11.0 0.00 0.00 0.00 34 1011.3
20260501183824 67 129 4.0 11.0 0.00 0.00 0.00 34 1011.5
20260501180559 67 242 2.0 10.0 0.00 0.00 0.00 36 1011.9
20260501175602 66 307 3.0 11.0 0.00 0.00 0.00 39 1011.9
20260501174555 66 256 3.0 11.0 0.00 0.00 0.00 37 1012.0
20260501172408 67 293 3.0 11.0 0.00 0.00 0.00 38 1012.3
20260501170249 66 178 4.0 9.0 0.00 0.00 0.00 38 1012.4
20260501165251 66 179 3.0 9.0 0.00 0.00 0.00 39 1012.5
20260501164250 66 9 2.0 7.0 0.00 0.00 0.00 37 1012.6